contact:dominique.lefevre@mio.osupytheas.fr, maurice.libes@osupytheas.fr, didier.mallarino@osupytheas.fr
Project:EMSO http://www.emso-fr.org/EMSO-France
Depth: 2436.0 m
Title:EMSO Ligure Ouest : Data MII capteur AQUADOPP
Date,Latitude,Longitude,X_East,Y_North,Z_Up,Amplitude_X,Amplitude_Y,Amplitude_Z,Batterie,SoundSpeed,Heading,Pitch,Roll,Pressure,TIS,Speed,Direction
, degrees North, degrees East, m.s-1, m.s-1,m.s-1, 1, 1, 1, Volt, m.s-1, degree, degree, degree, dbar, degree_C, m.s-1, degree
2021-04-09T01:04:03,42.805,6.029,-0.017,-0.007,0.06,101.0,101.0,100.0,13.4,1505.1,326.7,-0.8,1.8,2467.396,13.27,0.018,247.6
2021-04-09T01:07:03,42.805,6.029,-0.016,-0.016,-0.021,100.0,103.0,100.0,13.3,1505.1,327.2,-0.7,1.9,2467.485,13.27,0.022,225.0
2021-04-09T01:10:03,42.805,6.029,0.0,-0.002,0.0,101.0,101.0,100.0,13.4,1505.2,326.9,-0.8,1.8,2467.499,13.28,0.002,180.0
2021-04-09T01:13:03,42.805,6.029,-0.024,-0.024,0.02,102.0,100.0,101.0,13.3,1505.2,328.1,-0.7,1.8,2467.599,13.28,0.033,225.0
2021-04-09T01:16:03,42.805,6.029,-0.019,-0.003,-0.008,102.0,103.0,99.0,13.4,1505.2,328.8,-0.7,1.8,2467.676,13.28,0.019,261.0
2021-04-09T01:19:03,42.805,6.029,-0.004,-0.03,0.022,101.0,103.0,100.0,13.4,1505.2,326.3,-0.8,1.8,2467.697,13.28,0.03,187.6
2021-04-09T01:22:03,42.805,6.029,-0.031,-0.019,0.005,100.0,102.0,101.0,13.4,1505.2,324.8,-0.8,1.8,2467.656,13.28,0.036,238.5
2021-04-09T01:25:03,42.805,6.029,-0.025,-0.002,-0.005,102.0,102.0,106.0,13.4,1505.2,326.7,-0.8,1.8,2467.694,13.29,0.025,265.4
2021-04-09T01:28:03,42.805,6.029,-0.032,-0.01,0.016,103.0,102.0,101.0,13.4,1505.2,325.6,-0.8,1.9,2467.725,13.29,0.033,252.6
2021-04-09T01:31:03,42.805,6.029,-0.028,-0.013,0.021,102.0,103.0,100.0,13.4,1505.2,324.8,-0.8,1.8,2467.661,13.29,0.03,245.1
2021-04-09T01:34:03,42.805,6.029,-0.015,-0.046,0.023,105.0,103.0,102.0,13.4,1505.2,325.3,-0.8,1.8,2467.747,13.29,0.048,198.1
2021-04-09T01:37:03,42.805,6.029,-0.018,-0.013,-0.018,104.0,103.0,101.0,13.3,1505.2,326.9,-0.7,1.8,2467.794,13.29,0.022,234.2
2021-04-09T01:40:03,42.805,6.029,-0.015,-0.016,0.015,105.0,105.0,101.0,13.3,1505.2,326.7,-0.8,1.8,2467.838,13.29,0.021,223.1
2021-04-09T01:43:03,42.805,6.029,-0.016,-0.026,0.0,104.0,102.0,102.0,13.4,1505.2,323.6,-0.8,1.8,2467.869,13.29,0.03,211.6
2021-04-09T01:46:03,42.805,6.029,-0.016,-0.009,-0.018,104.0,102.0,102.0,13.4,1505.2,328.3,-0.7,1.8,2467.868,13.29,0.018,240.6
2021-04-09T01:49:03,42.805,6.029,-0.013,-0.009,0.009,103.0,102.0,102.0,13.3,1505.2,326.9,-0.8,1.9,2467.853,13.29,0.015,235.3
2021-04-09T01:52:03,42.805,6.029,-0.025,-0.02,0.006,102.0,103.0,100.0,13.3,1505.2,323.6,-0.7,1.8,2467.859,13.29,0.032,231.3
2021-04-09T01:55:03,42.805,6.029,-0.009,-0.021,0.013,102.0,104.0,99.0,13.3,1505.2,326.5,-0.8,1.8,2467.865,13.29,0.022,203.2
2021-04-09T01:58:03,42.805,6.029,-0.023,-0.028,-0.002,103.0,103.0,100.0,13.3,1505.2,326.5,-0.7,1.8,2467.877,13.29,0.036,219.4
2021-04-09T02:04:03,42.805,6.029,-0.042,-0.005,0.0,106.0,102.0,100.0,13.4,1505.2,324.6,-0.8,1.8,2467.819,13.28,0.042,263.2
2021-04-09T02:07:03,42.805,6.029,-0.013,-0.013,0.003,103.0,102.0,100.0,13.4,1505.2,327.2,-0.8,1.9,2467.757,13.28,0.018,225.0
2021-04-09T02:10:03,42.805,6.029,-0.01,-0.001,0.016,104.0,103.0,100.0,13.4,1505.2,326.6,-0.7,1.8,2467.773,13.29,0.01,264.3
2021-04-09T02:13:03,42.805,6.029,-0.023,-0.003,0.0,104.0,103.0,102.0,13.3,1505.2,326.1,-0.7,1.8,2467.737,13.29,0.023,262.6
2021-04-09T02:16:03,42.805,6.029,-0.005,-0.007,0.01,103.0,103.0,102.0,13.4,1505.2,328.6,-0.7,1.8,2467.74,13.29,0.008,215.5
2021-04-09T02:19:03,42.805,6.029,-0.017,-0.013,0.003,101.0,104.0,101.0,13.4,1505.2,326.0,-0.8,1.8,2467.694,13.29,0.021,232.6
2021-04-09T02:22:03,42.805,6.029,0.004,-0.003,0.005,102.0,103.0,101.0,13.4,1505.2,325.7,-0.7,1.8,2467.721,13.29,0.005,126.9
2021-04-09T02:25:03,42.805,6.029,-0.038,-0.021,-0.001,103.0,102.0,101.0,13.4,1505.2,326.6,-0.8,1.9,2467.705,13.29,0.043,241.1
2021-04-09T02:28:03,42.805,6.029,-0.017,-0.01,-0.002,102.0,103.0,102.0,13.3,1505.2,327.4,-0.7,1.8,2467.717,13.29,0.019,239.5
2021-04-09T02:31:03,42.805,6.029,-0.025,-0.015,-0.001,102.0,104.0,101.0,13.4,1505.2,327.9,-0.8,1.8,2467.74,13.29,0.029,239.0
2021-04-09T02:34:03,42.805,6.029,-0.04,0.001,0.012,103.0,102.0,102.0,13.3,1505.2,325.7,-0.7,1.8,2467.724,13.29,0.04,271.4
2021-04-09T02:37:03,42.805,6.029,-0.005,-0.023,0.018,103.0,103.0,101.0,13.3,1505.2,326.9,-0.7,1.8,2467.726,13.29,0.023,192.3
2021-04-09T02:40:03,42.805,6.029,-0.025,-0.021,0.007,103.0,104.0,100.0,13.4,1505.2,327.9,-0.7,1.8,2467.727,13.29,0.032,230.0
2021-04-09T02:43:03,42.805,6.029,-0.022,-0.012,-0.013,103.0,103.0,103.0,13.4,1505.2,325.3,-0.7,1.8,2467.701,13.29,0.025,241.4
2021-04-09T02:46:03,42.805,6.029,-0.006,-0.006,-0.002,103.0,103.0,102.0,13.4,1505.2,325.5,-0.7,1.8,2467.703,13.29,0.008,225.0
2021-04-09T02:49:03,42.805,6.029,-0.03,-0.013,0.029,103.0,103.0,101.0,13.4,1505.2,327.9,-0.7,1.8,2467.696,13.29,0.032,246.6
2021-04-09T02:52:03,42.805,6.029,-0.026,-0.006,0.002,102.0,102.0,101.0,13.4,1505.2,326.8,-0.7,1.8,2467.668,13.29,0.026,257.0
2021-04-09T02:55:03,42.805,6.029,-0.022,-0.021,0.0,102.0,101.0,101.0,13.4,1505.2,327.3,-0.8,1.8,2467.731,13.29,0.03,226.3
2021-04-09T02:58:03,42.805,6.029,-0.017,-0.015,-0.022,102.0,103.0,102.0,13.4,1505.2,323.6,-0.8,1.8,2467.699,13.29,0.022,228.6
2021-04-09T03:04:03,42.805,6.029,-0.005,-0.022,0.006,103.0,102.0,101.0,13.3,1505.2,328.1,-0.8,1.8,2467.727,13.28,0.022,192.8
2021-04-09T03:07:03,42.805,6.029,-0.003,-0.017,-0.009,103.0,102.0,102.0,13.4,1505.2,323.6,-0.7,1.8,2467.696,13.28,0.017,190.0
2021-04-09T03:10:03,42.805,6.029,-0.004,-0.032,-0.025,102.0,103.0,101.0,13.4,1505.2,326.3,-0.7,1.8,2467.753,13.28,0.032,187.1
2021-04-09T03:13:03,42.805,6.029,-0.019,-0.002,0.008,102.0,106.0,101.0,13.4,1505.2,326.7,-0.8,1.8,2467.651,13.29,0.019,264.0
2021-04-09T03:16:03,42.805,6.029,-0.047,0.004,-0.018,102.0,102.0,101.0,13.3,1505.2,327.3,-0.8,1.8,2467.772,13.29,0.047,274.9
2021-04-09T03:19:03,42.805,6.029,-0.014,-0.022,-0.001,102.0,103.0,101.0,13.4,1505.2,325.9,-0.7,1.8,2467.87,13.29,0.026,212.5
2021-04-09T03:22:03,42.805,6.029,-0.008,-0.014,-0.004,104.0,102.0,101.0,13.4,1505.2,327.9,-0.7,1.8,2467.982,13.29,0.016,209.7
2021-04-09T03:25:03,42.805,6.029,-0.017,0.0,0.011,102.0,103.0,101.0,13.3,1505.2,328.4,-0.8,1.8,2468.058,13.29,0.017,270.0
2021-04-09T03:28:03,42.805,6.029,-0.025,-0.011,-0.001,102.0,105.0,102.0,13.3,1505.2,324.2,-0.8,1.8,2468.139,13.29,0.027,246.3
2021-04-09T03:31:03,42.805,6.029,-0.011,-0.011,0.014,103.0,106.0,101.0,13.4,1505.2,325.6,-0.7,1.8,2468.148,13.29,0.015,225.0
2021-04-09T03:34:03,42.805,6.029,-0.031,-0.009,0.021,104.0,101.0,101.0,13.3,1505.2,325.4,-0.7,1.8,2468.221,13.29,0.032,253.8
2021-04-09T03:37:03,42.805,6.029,-0.028,0.008,0.019,103.0,102.0,102.0,13.4,1505.2,327.4,-0.8,1.8,2468.302,13.29,0.029,285.9
2021-04-09T03:40:03,42.805,6.029,-0.015,-0.003,0.03,102.0,102.0,101.0,13.4,1505.2,326.6,-0.8,1.8,2468.325,13.29,0.015,258.7
2021-04-09T03:43:03,42.805,6.029,-0.018,-0.004,-0.003,102.0,103.0,101.0,13.4,1505.2,326.2,-0.8,1.8,2468.373,13.29,0.018,257.5
2021-04-09T03:46:03,42.805,6.029,-0.013,-0.027,-0.027,103.0,101.0,100.0,13.4,1505.2,327.4,-0.7,1.8,2468.41,13.29,0.029,205.7
2021-04-09T03:49:03,42.805,6.029,-0.018,-0.02,-0.024,104.0,104.0,101.0,13.3,1505.2,326.1,-0.8,1.8,2468.514,13.29,0.026,222.0
2021-04-09T03:52:03,42.805,6.029,-0.029,-0.035,0.028,103.0,103.0,101.0,13.4,1505.2,324.6,-0.7,1.8,2468.605,13.29,0.045,219.6
2021-04-09T03:55:03,42.805,6.029,-0.016,0.0,0.021,104.0,103.0,101.0,13.3,1505.2,324.9,-0.8,1.8,2468.63,13.29,0.016,270.0
2021-04-09T03:58:03,42.805,6.029,-0.029,-0.013,-0.007,102.0,104.0,101.0,13.4,1505.2,324.1,-0.8,1.8,2468.697,13.29,0.031,245.9
2021-04-09T04:04:03,42.805,6.029,-0.015,-0.019,0.012,104.0,105.0,101.0,13.3,1505.2,327.2,-0.8,1.8,2468.93,13.28,0.024,218.3
2021-04-09T04:07:03,42.805,6.029,-0.012,-0.027,0.016,103.0,104.0,101.0,13.3,1505.2,327.1,-0.7,1.8,2468.932,13.28,0.029,204.0
2021-04-09T04:10:03,42.805,6.029,-0.024,0.0,0.0,103.0,103.0,102.0,13.4,1505.2,326.8,-0.7,1.9,2468.913,13.28,0.024,270.0
2021-04-09T04:13:03,42.805,6.029,-0.019,-0.005,-0.009,101.0,101.0,101.0,13.3,1505.2,327.9,-0.7,1.8,2468.97,13.28,0.019,255.3
2021-04-09T04:16:03,42.805,6.029,-0.016,-0.015,-0.011,103.0,102.0,101.0,13.3,1505.2,324.2,-0.7,1.8,2468.997,13.28,0.021,226.9
2021-04-09T04:19:03,42.805,6.029,-0.024,-0.006,-0.001,104.0,101.0,101.0,13.4,1505.2,325.7,-0.8,1.8,2469.086,13.28,0.024,256.0
2021-04-09T04:22:03,42.805,6.029,-0.023,-0.023,0.013,103.0,103.0,100.0,13.4,1505.2,328.3,-0.7,1.8,2469.121,13.28,0.032,225.0
2021-04-09T04:25:03,42.805,6.029,-0.025,-0.002,0.005,102.0,102.0,102.0,13.4,1505.2,328.2,-0.8,1.8,2469.149,13.29,0.025,265.4
2021-04-09T04:28:03,42.805,6.029,-0.018,-0.021,-0.011,101.0,102.0,102.0,13.3,1505.2,325.2,-0.7,1.8,2469.263,13.29,0.027,220.6
2021-04-09T04:31:03,42.805,6.029,-0.033,-0.015,0.013,103.0,103.0,100.0,13.4,1505.2,327.1,-0.7,1.8,2469.29,13.29,0.036,245.6
2021-04-09T04:34:03,42.805,6.029,-0.006,-0.022,0.019,105.0,101.0,100.0,13.3,1505.2,326.4,-0.7,1.9,2469.335,13.29,0.022,195.3
2021-04-09T04:37:03,42.805,6.029,-0.008,-0.025,0.011,103.0,101.0,101.0,13.3,1505.2,328.1,-0.8,1.8,2469.354,13.29,0.026,197.7
2021-04-09T04:40:03,42.805,6.029,-0.037,-0.007,0.009,104.0,104.0,100.0,13.4,1505.2,328.5,-0.7,1.8,2469.431,13.29,0.037,259.3
2021-04-09T04:43:03,42.805,6.029,-0.014,-0.009,0.02,103.0,103.0,102.0,13.3,1505.2,325.2,-0.7,1.8,2469.448,13.29,0.016,237.3
2021-04-09T04:46:03,42.805,6.029,-0.035,-0.025,-0.011,104.0,101.0,102.0,13.4,1505.2,327.6,-0.7,1.8,2469.458,13.29,0.043,234.5
2021-04-09T04:49:03,42.805,6.029,-0.034,-0.037,-0.01,104.0,102.0,102.0,13.4,1505.2,327.3,-0.8,1.8,2469.539,13.29,0.05,222.6
2021-04-09T04:52:03,42.805,6.029,-0.047,-0.006,0.017,101.0,103.0,101.0,13.4,1505.2,326.1,-0.8,1.8,2469.584,13.29,0.047,262.7
2021-04-09T04:55:03,42.805,6.029,-0.01,-0.021,-0.01,102.0,102.0,101.0,13.4,1505.2,325.1,-0.7,1.9,2469.606,13.29,0.023,205.5
2021-04-09T04:58:03,42.805,6.029,-0.038,-0.02,-0.017,103.0,100.0,101.0,13.3,1505.2,327.9,-0.7,1.8,2469.629,13.29,0.042,242.2
2021-04-09T05:04:03,42.805,6.029,-0.022,-0.009,-0.003,102.0,101.0,101.0,13.3,1505.2,327.9,-0.8,1.8,2469.641,13.28,0.023,247.8
2021-04-09T05:07:03,42.805,6.029,0.0,-0.02,0.034,103.0,101.0,100.0,13.4,1505.2,325.3,-0.8,1.8,2469.627,13.28,0.02,180.0
2021-04-09T05:10:03,42.805,6.029,-0.036,-0.019,-0.018,101.0,102.0,101.0,13.4,1505.2,324.8,-0.7,1.8,2469.654,13.28,0.04,242.2
2021-04-09T05:13:03,42.805,6.029,-0.034,-0.033,-0.011,103.0,105.0,100.0,13.4,1505.2,327.5,-0.7,1.8,2469.705,13.28,0.047,225.9
2021-04-09T05:16:03,42.805,6.029,0.004,-0.044,-0.036,102.0,103.0,101.0,13.4,1505.2,329.0,-0.8,1.8,2469.684,13.28,0.044,174.8
2021-04-09T05:19:03,42.805,6.029,-0.023,-0.034,0.014,101.0,101.0,99.0,13.4,1505.2,328.3,-0.8,1.8,2469.703,13.29,0.041,214.1
2021-04-09T05:22:03,42.805,6.029,-0.023,-0.037,-0.02,101.0,103.0,100.0,13.4,1505.2,326.2,-0.8,1.8,2469.741,13.29,0.043,211.9
2021-04-09T05:25:03,42.805,6.029,-0.032,-0.007,-0.024,102.0,100.0,101.0,13.4,1505.2,325.2,-0.8,1.8,2469.709,13.29,0.032,257.7
2021-04-09T05:28:03,42.805,6.029,-0.021,-0.012,-0.022,102.0,101.0,100.0,13.3,1505.2,327.4,-0.8,1.8,2469.75,13.29,0.024,240.3
2021-04-09T05:31:03,42.805,6.029,-0.038,-0.023,-0.014,102.0,101.0,100.0,13.3,1505.2,327.9,-0.7,1.8,2469.711,13.29,0.044,238.8
2021-04-09T05:34:03,42.805,6.029,-0.008,-0.027,0.003,102.0,102.0,100.0,13.4,1505.2,325.4,-0.8,1.8,2469.726,13.29,0.028,196.5
2021-04-09T05:37:03,42.805,6.029,-0.026,-0.008,-0.025,102.0,102.0,100.0,13.4,1505.2,327.1,-0.7,1.9,2469.71,13.29,0.027,252.9
2021-04-09T05:40:03,42.805,6.029,0.0,-0.036,0.021,103.0,101.0,100.0,13.3,1505.2,324.9,-0.7,1.8,2469.74,13.28,0.036,180.0
2021-04-09T05:43:03,42.805,6.029,-0.022,-0.029,0.001,100.0,102.0,100.0,13.3,1505.2,326.3,-0.8,1.9,2469.748,13.28,0.036,217.2
2021-04-09T05:46:03,42.805,6.029,-0.018,-0.021,0.003,103.0,100.0,100.0,13.4,1505.2,326.9,-0.8,1.8,2469.736,13.28,0.027,220.6
2021-04-09T05:49:03,42.805,6.029,-0.04,-0.03,-0.008,103.0,103.0,101.0,13.3,1505.2,323.5,-0.8,1.8,2469.752,13.28,0.05,233.1
2021-04-09T05:52:03,42.805,6.029,-0.003,-0.032,0.007,102.0,104.0,102.0,13.4,1505.2,323.4,-0.7,1.8,2469.763,13.28,0.032,185.4
2021-04-09T05:55:03,42.805,6.029,-0.022,-0.025,-0.043,104.0,102.0,102.0,13.4,1505.2,325.3,-0.8,1.8,2469.737,13.29,0.033,221.3
2021-04-09T05:58:03,42.805,6.029,-0.003,-0.027,-0.014,101.0,102.0,101.0,13.4,1505.2,325.8,-0.7,1.8,2469.767,13.29,0.027,186.3
2021-04-09T06:04:03,42.805,6.029,-0.028,-0.027,0.0,104.0,102.0,102.0,13.4,1505.2,323.9,-0.8,1.8,2469.805,13.28,0.038,226.0
2021-04-09T06:07:03,42.805,6.029,0.004,-0.027,-0.002,106.0,103.0,102.0,13.4,1505.2,323.6,-0.8,1.8,2469.797,13.28,0.027,171.6
2021-04-09T06:10:03,42.805,6.029,-0.019,-0.025,0.002,103.0,104.0,101.0,13.4,1505.2,325.5,-0.8,1.8,2469.754,13.28,0.031,217.2
2021-04-09T06:13:03,42.805,6.029,-0.014,-0.03,0.009,104.0,105.0,101.0,13.3,1505.2,326.5,-0.7,1.8,2469.783,13.28,0.033,205.0
2021-04-09T06:16:03,42.805,6.029,-0.042,-0.03,-0.026,102.0,100.0,100.0,13.4,1505.2,328.5,-0.7,1.8,2469.757,13.28,0.051,234.5
2021-04-09T06:19:03,42.805,6.029,-0.008,-0.035,0.031,102.0,103.0,100.0,13.3,1505.2,327.9,-0.7,1.8,2469.804,13.28,0.035,192.9
2021-04-09T06:22:03,42.805,6.029,-0.045,-0.017,0.009,101.0,103.0,102.0,13.4,1505.2,325.4,-0.8,1.9,2469.781,13.28,0.048,249.3
2021-04-09T06:25:03,42.805,6.029,-0.017,-0.024,0.004,102.0,104.0,100.0,13.4,1505.2,327.2,-0.8,1.8,2469.754,13.28,0.029,215.3
2021-04-09T06:28:03,42.805,6.029,-0.043,-0.012,-0.004,102.0,102.0,102.0,13.4,1505.2,327.7,-0.7,1.8,2469.718,13.28,0.044,254.4
2021-04-09T06:31:03,42.805,6.029,-0.025,-0.006,-0.041,101.0,103.0,100.0,13.4,1505.2,327.4,-0.7,1.8,2469.714,13.28,0.025,256.5
2021-04-09T06:34:03,42.805,6.029,-0.036,-0.036,0.022,103.0,102.0,100.0,13.4,1505.2,327.3,-0.7,1.8,2469.725,13.28,0.05,225.0
2021-04-09T06:37:03,42.805,6.029,-0.028,-0.006,0.022,102.0,103.0,100.0,13.4,1505.2,326.7,-0.8,1.8,2469.667,13.28,0.028,257.9
2021-04-09T06:40:03,42.805,6.029,0.006,-0.028,-0.005,103.0,104.0,100.0,13.4,1505.2,325.8,-0.8,1.8,2469.695,13.28,0.028,167.9
2021-04-09T06:43:03,42.805,6.029,-0.029,-0.017,0.035,102.0,102.0,100.0,13.3,1505.2,327.3,-0.7,1.8,2469.655,13.28,0.033,239.6
2021-04-09T06:46:03,42.805,6.029,-0.036,-0.012,0.02,103.0,102.0,100.0,13.4,1505.2,327.1,-0.8,1.8,2469.648,13.28,0.037,251.6
2021-04-09T06:49:03,42.805,6.029,-0.013,-0.028,-0.015,103.0,104.0,101.0,13.4,1505.2,325.7,-0.7,1.9,2469.667,13.28,0.03,204.9
2021-04-09T06:52:03,42.805,6.029,-0.041,-0.009,-0.013,103.0,103.0,102.0,13.4,1505.2,327.0,-0.7,1.9,2469.686,13.28,0.041,257.6
2021-04-09T06:55:03,42.805,6.029,-0.015,-0.041,-0.021,104.0,103.0,101.0,13.4,1505.2,324.1,-0.8,1.8,2469.63,13.28,0.043,200.1
2021-04-09T06:58:03,42.805,6.029,-0.021,-0.019,-0.015,105.0,103.0,101.0,13.4,1505.2,327.2,-0.8,1.8,2469.633,13.28,0.028,227.9
2021-04-09T07:04:03,42.805,6.029,-0.034,-0.045,0.005,104.0,104.0,102.0,13.4,1505.2,325.4,-0.8,1.8,2469.68,13.28,0.056,217.1
2021-04-09T07:07:03,42.805,6.029,-0.029,-0.041,-0.022,104.0,103.0,101.0,13.3,1505.2,324.8,-0.7,1.8,2469.63,13.28,0.05,215.3
2021-04-09T07:10:03,42.805,6.029,-0.04,-0.03,0.014,105.0,103.0,101.0,13.4,1505.2,327.2,-0.7,1.8,2469.649,13.28,0.05,233.1
2021-04-09T07:13:03,42.805,6.029,-0.019,-0.006,0.014,106.0,103.0,101.0,13.4,1505.2,326.2,-0.7,1.8,2469.615,13.28,0.019,252.5
2021-04-09T07:16:03,42.805,6.029,-0.029,-0.032,0.004,103.0,104.0,101.0,13.4,1505.2,327.2,-0.8,1.8,2469.629,13.28,0.043,222.2
2021-04-09T07:19:03,42.805,6.029,-0.038,-0.018,0.0,103.0,103.0,101.0,13.4,1505.2,324.8,-0.8,1.8,2469.619,13.28,0.042,244.7
2021-04-09T07:22:03,42.805,6.029,-0.015,-0.029,0.006,103.0,104.0,100.0,13.3,1505.2,327.5,-0.8,1.9,2469.636,13.28,0.032,207.4
2021-04-09T07:25:03,42.805,6.029,-0.048,-0.02,-0.02,105.0,103.0,100.0,13.4,1505.2,325.3,-0.8,1.8,2469.67,13.28,0.052,247.4
2021-04-09T07:28:03,42.805,6.029,-0.029,-0.016,0.022,104.0,104.0,101.0,13.4,1505.2,326.8,-0.8,1.9,2469.619,13.28,0.033,241.1
2021-04-09T07:31:03,42.805,6.029,-0.028,-0.034,-0.021,104.0,104.0,100.0,13.4,1505.2,325.0,-0.7,1.8,2469.655,13.28,0.044,219.5
2021-04-09T07:34:03,42.805,6.029,-0.02,-0.031,0.009,105.0,104.0,102.0,13.4,1505.2,326.0,-0.7,1.8,2469.635,13.28,0.036,212.8
2021-04-09T07:37:03,42.805,6.029,-0.014,-0.024,-0.001,105.0,104.0,102.0,13.4,1505.2,326.9,-0.8,1.8,2469.655,13.28,0.027,210.3
2021-04-09T07:40:03,42.805,6.029,-0.032,-0.039,0.002,103.0,102.0,102.0,13.4,1505.2,324.0,-0.8,1.8,2469.621,13.28,0.05,219.4
2021-04-09T07:43:03,42.805,6.029,-0.03,-0.014,0.027,103.0,104.0,101.0,13.4,1505.2,327.2,-0.8,1.8,2469.624,13.28,0.033,245.0
2021-04-09T07:46:03,42.805,6.029,-0.022,-0.025,0.017,103.0,103.0,101.0,13.3,1505.2,326.7,-0.7,1.8,2469.609,13.28,0.033,221.3
2021-04-09T07:49:03,42.805,6.029,-0.03,-0.038,-0.004,102.0,104.0,103.0,13.4,1505.2,325.8,-0.8,1.8,2469.602,13.28,0.048,218.3
2021-04-09T07:52:03,42.805,6.029,-0.033,-0.022,-0.023,105.0,104.0,102.0,13.3,1505.2,326.9,-0.8,1.8,2469.606,13.28,0.039,236.3
2021-04-09T07:55:03,42.805,6.029,-0.014,-0.014,0.004,104.0,105.0,100.0,13.4,1505.2,326.2,-0.7,1.8,2469.546,13.28,0.019,225.0
2021-04-09T07:58:03,42.805,6.029,-0.041,-0.029,-0.03,105.0,103.0,102.0,13.4,1505.2,323.6,-0.7,1.8,2469.544,13.28,0.05,234.7
2021-04-09T08:04:03,42.805,6.029,-0.021,-0.015,-0.004,105.0,103.0,103.0,13.3,1505.2,327.9,-0.7,1.8,2469.623,13.28,0.025,234.5
2021-04-09T08:07:03,42.805,6.029,-0.019,-0.026,-0.003,103.0,105.0,101.0,13.4,1505.2,325.0,-0.8,1.8,2469.57,13.28,0.032,216.2
2021-04-09T08:10:03,42.805,6.029,-0.018,-0.024,0.003,103.0,103.0,101.0,13.4,1505.2,326.6,-0.7,1.8,2469.602,13.28,0.03,216.9
2021-04-09T08:13:03,42.805,6.029,-0.039,-0.017,-0.007,104.0,103.0,101.0,13.3,1505.2,325.7,-0.8,1.8,2469.561,13.28,0.042,246.5
2021-04-09T08:16:03,42.805,6.029,-0.038,-0.011,-0.011,104.0,103.0,102.0,13.4,1505.2,326.3,-0.8,1.9,2469.581,13.28,0.039,253.9
2021-04-09T08:19:03,42.805,6.029,-0.022,-0.033,-0.021,102.0,105.0,102.0,13.3,1505.2,326.1,-0.7,1.8,2469.581,13.28,0.039,213.7
2021-04-09T08:22:03,42.805,6.029,-0.046,-0.025,-0.014,103.0,104.0,102.0,13.4,1505.2,325.7,-0.8,1.8,2469.62,13.28,0.052,241.5
2021-04-09T08:25:03,42.805,6.029,-0.064,-0.02,-0.003,104.0,100.0,103.0,13.3,1505.2,323.9,-0.7,1.8,2469.531,13.28,0.067,252.6
2021-04-09T08:28:03,42.805,6.029,-0.05,-0.01,0.004,103.0,103.0,101.0,13.4,1505.2,323.7,-0.8,1.8,2469.584,13.28,0.05,258.7
2021-04-09T08:31:03,42.805,6.029,-0.049,-0.02,0.0,105.0,102.0,101.0,13.4,1505.2,326.5,-0.7,1.8,2469.575,13.28,0.052,247.8
2021-04-09T08:34:03,42.805,6.029,-0.026,-0.012,-0.03,103.0,104.0,101.0,13.4,1505.2,328.3,-0.8,1.8,2469.62,13.28,0.028,245.2
2021-04-09T08:37:03,42.805,6.029,-0.036,-0.009,-0.002,102.0,103.0,102.0,13.4,1505.2,323.9,-0.8,1.8,2469.624,13.28,0.037,256.0
2021-04-09T08:40:03,42.805,6.029,-0.045,-0.014,-0.021,103.0,103.0,101.0,13.4,1505.2,324.0,-0.8,1.8,2469.596,13.28,0.047,252.7
2021-04-09T08:43:03,42.805,6.029,-0.039,-0.011,-0.031,103.0,103.0,101.0,13.4,1505.2,325.4,-0.7,1.8,2469.623,13.28,0.04,254.3
2021-04-09T08:46:03,42.805,6.029,-0.047,-0.029,-0.01,103.0,102.0,101.0,13.3,1505.2,328.1,-0.7,1.8,2469.664,13.28,0.055,238.3
2021-04-09T08:49:03,42.805,6.029,-0.04,-0.008,-0.004,103.0,102.0,100.0,13.4,1505.2,326.7,-0.7,1.8,2469.623,13.28,0.04,258.7
2021-04-09T08:52:03,42.805,6.029,-0.053,0.001,0.013,103.0,104.0,102.0,13.3,1505.2,324.6,-0.7,1.9,2469.677,13.28,0.053,271.1
2021-04-09T08:55:03,42.805,6.029,-0.008,-0.016,-0.017,102.0,104.0,102.0,13.4,1505.2,326.5,-0.7,1.8,2469.657,13.28,0.017,206.6
2021-04-09T08:58:03,42.805,6.029,-0.022,-0.007,0.0,103.0,103.0,101.0,13.4,1505.2,326.4,-0.8,1.8,2469.676,13.28,0.023,252.4
2021-04-09T09:04:03,42.805,6.029,-0.021,-0.024,-0.001,103.0,102.0,100.0,13.4,1505.2,323.5,-0.8,1.8,2469.734,13.28,0.031,221.2
2021-04-09T09:07:03,42.805,6.029,-0.03,-0.018,0.001,102.0,103.0,101.0,13.4,1505.2,324.4,-0.8,1.8,2469.751,13.28,0.034,239.0
2021-04-09T09:10:03,42.805,6.029,-0.046,-0.003,-0.021,102.0,102.0,100.0,13.4,1505.2,327.2,-0.8,1.8,2469.754,13.28,0.046,266.3
2021-04-09T09:13:03,42.805,6.029,-0.054,0.002,0.012,102.0,102.0,101.0,13.4,1505.2,328.3,-0.8,1.8,2469.755,13.28,0.054,272.1
2021-04-09T09:16:03,42.805,6.029,-0.03,-0.013,-0.039,103.0,101.0,100.0,13.4,1505.2,324.2,-0.8,1.9,2469.817,13.28,0.032,246.6
2021-04-09T09:19:03,42.805,6.029,-0.036,0.005,-0.008,103.0,104.0,101.0,13.4,1505.2,325.8,-0.7,1.8,2469.782,13.28,0.036,277.9
2021-04-09T09:22:03,42.805,6.029,-0.047,-0.02,-0.01,102.0,103.0,101.0,13.3,1505.2,327.0,-0.7,1.8,2469.799,13.28,0.051,247.0
2021-04-09T09:25:03,42.805,6.029,-0.024,-0.011,-0.003,101.0,103.0,101.0,13.3,1505.2,325.5,-0.8,1.8,2469.788,13.28,0.026,245.4
2021-04-09T09:28:03,42.805,6.029,-0.042,-0.017,0.026,102.0,102.0,101.0,13.3,1505.2,325.6,-0.8,1.8,2469.81,13.28,0.045,248.0
2021-04-09T09:31:03,42.805,6.029,-0.033,-0.01,0.011,104.0,103.0,101.0,13.4,1505.2,324.6,-0.7,1.8,2469.799,13.28,0.034,253.1
2021-04-09T09:34:03,42.805,6.029,-0.037,0.002,-0.015,103.0,103.0,101.0,13.3,1505.2,325.5,-0.7,1.8,2469.815,13.28,0.037,273.1
2021-04-09T09:37:03,42.805,6.029,-0.031,-0.021,0.0,104.0,103.0,101.0,13.4,1505.2,323.8,-0.8,1.8,2469.841,13.28,0.037,235.9
2021-04-09T09:40:03,42.805,6.029,-0.036,-0.017,-0.004,103.0,102.0,101.0,13.4,1505.2,324.3,-0.8,1.8,2469.838,13.28,0.039,244.7
2021-04-09T09:43:03,42.805,6.029,-0.029,-0.017,-0.007,103.0,103.0,100.0,13.4,1505.2,324.2,-0.7,1.8,2469.844,13.28,0.033,239.6
2021-04-09T09:46:03,42.805,6.029,-0.032,-0.008,0.006,102.0,104.0,101.0,13.4,1505.2,326.1,-0.7,1.8,2469.851,13.28,0.032,256.0
2021-04-09T09:49:03,42.805,6.029,-0.027,-0.008,-0.023,103.0,102.0,100.0,13.3,1505.2,326.8,-0.8,1.8,2469.864,13.28,0.028,253.5
2021-04-09T09:52:03,42.805,6.029,-0.041,-0.025,0.0,103.0,101.0,101.0,13.4,1505.2,324.9,-0.7,1.8,2469.868,13.28,0.048,238.6
2021-04-09T09:55:03,42.805,6.029,-0.035,0.0,0.02,103.0,102.0,100.0,13.3,1505.2,327.3,-0.7,1.8,2469.884,13.28,0.035,270.0
2021-04-09T09:58:03,42.805,6.029,-0.025,-0.012,0.029,102.0,102.0,101.0,13.4,1505.2,326.3,-0.8,1.8,2469.914,13.28,0.027,244.4
2021-04-09T10:04:03,42.805,6.029,-0.042,-0.017,0.02,103.0,103.0,101.0,13.4,1505.2,326.4,-0.8,1.8,2470.008,13.28,0.045,248.0
2021-04-09T10:07:03,42.805,6.029,-0.066,-0.026,0.004,102.0,103.0,100.0,13.3,1505.2,328.8,-0.8,1.8,2469.957,13.28,0.07,248.5
2021-04-09T10:10:03,42.805,6.029,-0.02,0.004,-0.009,102.0,101.0,100.0,13.4,1505.2,324.5,-0.8,1.8,2469.97,13.28,0.02,281.3
2021-04-09T10:13:03,42.805,6.029,-0.046,-0.014,-0.032,102.0,101.0,101.0,13.4,1505.2,326.8,-0.8,1.8,2469.983,13.28,0.048,253.1
2021-04-09T10:16:03,42.805,6.029,-0.041,-0.017,0.017,102.0,103.0,101.0,13.4,1505.2,328.7,-0.8,1.8,2469.979,13.28,0.044,247.5
2021-04-09T10:19:03,42.805,6.029,-0.021,-0.02,0.013,102.0,102.0,101.0,13.4,1505.2,326.5,-0.7,1.8,2470.031,13.28,0.028,226.4
2021-04-09T10:22:03,42.805,6.029,-0.028,0.0,0.012,102.0,103.0,100.0,13.3,1505.2,328.4,-0.7,1.9,2470.026,13.28,0.028,270.0
2021-04-09T10:25:03,42.805,6.029,-0.03,-0.011,-0.018,102.0,104.0,101.0,13.4,1505.2,328.8,-0.7,1.8,2470.035,13.28,0.031,249.9
2021-04-09T10:28:03,42.805,6.029,-0.019,-0.03,-0.021,102.0,104.0,102.0,13.3,1505.2,325.7,-0.7,1.8,2470.057,13.28,0.035,212.3
2021-04-09T10:31:03,42.805,6.029,-0.027,-0.009,0.037,103.0,103.0,100.0,13.3,1505.2,324.7,-0.7,1.8,2470.043,13.28,0.028,251.6
2021-04-09T10:34:03,42.805,6.029,-0.017,-0.016,-0.023,101.0,102.0,101.0,13.4,1505.2,328.4,-0.7,1.8,2470.065,13.28,0.023,226.7
2021-04-09T10:37:03,42.805,6.029,-0.035,-0.005,-0.006,104.0,104.0,101.0,13.3,1505.2,327.7,-0.7,1.8,2470.06,13.28,0.035,261.9
2021-04-09T10:40:03,42.805,6.029,-0.011,-0.013,0.0,104.0,103.0,100.0,13.4,1505.2,324.0,-0.8,1.8,2470.042,13.28,0.017,220.2
2021-04-09T10:43:03,42.805,6.029,-0.035,0.003,0.036,103.0,104.0,101.0,13.3,1505.2,327.6,-0.7,1.9,2470.08,13.28,0.035,274.9
2021-04-09T10:46:03,42.805,6.029,-0.023,-0.024,-0.037,104.0,103.0,100.0,13.4,1505.2,325.9,-0.8,1.8,2470.054,13.28,0.033,223.8
2021-04-09T10:49:03,42.805,6.029,-0.028,-0.018,-0.003,103.0,103.0,102.0,13.3,1505.2,326.4,-0.7,1.8,2470.089,13.28,0.033,237.3
2021-04-09T10:52:03,42.805,6.029,-0.039,-0.004,0.01,103.0,101.0,102.0,13.4,1505.2,328.0,-0.8,1.8,2470.085,13.28,0.039,264.1